FW6992 Weather Reports


Display with metric or nautical units.
time (UTC)temp
F
wind
direction
speed
MPH
gust
MPH
rain 1hr
in
rain 24hr
in
rain mn
in
humidity
%
barometer
mb
20260906141026 72 140 0.0 1.0 0.00 0.00 0.00 74 1019.0
20260906140520 72 236 0.0 1.0 0.00 0.00 0.00 74 1018.9
20260906140020 72 163 0.0 2.0 0.00 0.00 0.00 74 1018.7
20260906135517 71 350 0.0 2.0 0.00 0.00 0.00 73 1018.7
20260906135013 72 113 1.0 2.0 0.00 0.00 0.00 73 1018.8
20260906134509 72 328 0.0 2.0 0.00 0.00 0.00 73 1018.7
20260906134009 72 317 0.0 2.0 0.00 0.00 0.00 72 1018.6
20260906133505 72 100 2.0 2.0 0.00 0.00 0.00 74 1018.7
20260906132959 71 2 2.0 2.0 0.00 0.00 0.00 76 1018.7
20260906132454 71 190 0.0 1.0 0.00 0.00 0.00 77 1018.6
20260906131950 71 347 0.0 2.0 0.00 0.00 0.00 78 1019.0
20260906131445 71 261 0.0 2.0 0.00 0.00 0.00 76 1018.7
20260906130941 71 257 0.0 2.0 0.00 0.00 0.00 78 1018.8
20260906130440 71 214 0.0 3.0 0.00 0.00 0.00 76 1018.5
20260906125935 71 155 0.0 2.0 0.00 0.00 0.00 75 1018.5
20260906125431 72 304 1.0 2.0 0.00 0.00 0.00 74 1018.5
20260906124926 72 321 2.0 3.0 0.00 0.00 0.00 72 1018.5
20260906124422 73 154 2.0 3.0 0.00 0.00 0.00 74 1018.5
20260906123922 71 129 1.0 3.0 0.00 0.00 0.00 79 1018.4
20260906123421 70 24 0.0 4.0 0.00 0.00 0.00 80 1018.5
20260906122916 70 132 1.0 2.0 0.00 0.00 0.00 82 1018.3
20260906122416 70 273 2.0 3.0 0.00 0.00 0.00 81 1018.3
20260906121913 70 192 1.0 3.0 0.00 0.00 0.00 82 1018.3
20260906121408 70 251 0.0 1.0 0.00 0.00 0.00 84 1018.2
20260906120905 70 267 0.0 0.0 0.00 0.00 0.00 83 1018.3
20260906120400 70 122 1.0 2.0 0.00 0.00 0.00 82 1018.2
20260906115856 70 332 3.0 3.0 0.00 0.00 0.00 82 1017.9
20260906115351 70 207 0.0 1.0 0.00 0.00 0.00 83 1017.9
20260906114850 70 66 0.0 0.0 0.00 0.00 0.00 83 1017.9
20260906114346 70 238 1.0 1.0 0.00 0.00 0.00 84 1017.7
20260906113841 70 173 1.0 3.0 0.00 0.00 0.00 84 1017.7
20260906113340 70 22 0.0 1.0 0.00 0.00 0.00 85 1017.6
20260906112836 70 325 0.0 0.0 0.00 0.00 0.00 87 1017.6
20260906112332 70 303 0.0 2.0 0.00 0.00 0.00 87 1017.3
20260906111832 70 290 0.0 1.0 0.00 0.00 0.00 88 1017.5
20260906111331 70 240 2.0 2.0 0.00 0.00 0.00 89 1017.2
20260906110826 70 134 0.0 1.0 0.00 0.00 0.00 89 1017.4
20260906110322 70 274 0.0 1.0 0.00 0.00 0.00 90 1017.1
20260906105821 70 290 0.0 1.0 0.00 0.00 0.00 90 1017.3
20260906105317 70 135 0.0 0.0 0.00 0.00 0.00 90 1017.6
20260906104813 70 288 0.0 1.0 0.00 0.00 0.00 90 1017.3
20260906104311 70 330 0.0 0.0 0.00 0.00 0.00 90 1017.1
20260906103810 70 223 0.0 2.0 0.00 0.00 0.00 90 1017.2
20260906103309 71 359 0.0 2.0 0.00 0.00 0.00 90 1016.9
20260906102805 70 149 0.0 0.0 0.00 0.00 0.00 90 1016.7
20260906102306 71 123 0.0 1.0 0.00 0.00 0.00 91 1016.4
20260906101759 71 201 0.0 1.0 0.00 0.00 0.00 91 1016.8
20260906101254 71 201 0.0 0.0 0.00 0.00 0.00 91 1016.7
20260906100749 71 6 0.0 1.0 0.00 0.00 0.00 91 1016.4
20260906100248 71 214 0.0 0.0 0.00 0.00 0.00 91 1016.5
20260906095744 71 275 0.0 1.0 0.00 0.00 0.00 92 1016.4
20260906095239 71 192 0.0 1.0 0.00 0.00 0.00 92 1016.3
20260906094738 71 304 0.0 1.0 0.00 0.00 0.00 93 1016.4
20260906094233 71 251 0.0 0.0 0.00 0.00 0.00 93 1016.4
20260906093730 71 318 1.0 2.0 0.00 0.00 0.00 93 1016.2
20260906093219 71 290 0.0 2.0 0.00 0.00 0.00 93 1016.1
20260906092715 71 145 0.0 0.0 0.00 0.00 0.00 93 1016.4
20260906092214 71 4 0.0 1.0 0.00 0.00 0.00 93 1016.1
20260906091710 71 249 0.0 0.0 0.00 0.00 0.00 93 1016.1
20260906091207 71 346 0.0 0.0 0.00 0.00 0.00 93 1015.8
20260906090702 71 220 0.0 1.0 0.00 0.00 0.00 93 1016.0
20260906090201 71 205 0.0 1.0 0.00 0.00 0.00 93 1016.1
20260906085701 71 50 0.0 1.0 0.00 0.00 0.00 93 1015.8
20260906085200 71 138 0.0 2.0 0.00 0.00 0.00 93 1015.9
20260906084655 71 236 0.0 1.0 0.00 0.00 0.00 93 1015.8
20260906084154 71 227 0.0 1.0 0.00 0.00 0.00 93 1015.8
20260906083649 71 263 0.0 0.0 0.00 0.00 0.00 93 1015.8
20260906083145 71 90 1.0 1.0 0.00 0.00 0.00 93 1015.9
20260906082640 71 318 0.0 1.0 0.00 0.00 0.00 93 1015.7
20260906082135 71 194 0.0 0.0 0.00 0.00 0.00 93 1015.8
20260906081631 71 138 0.0 1.0 0.00 0.00 0.00 93 1016.0
20260906081126 71 238 0.0 0.0 0.00 0.00 0.00 93 1015.9
20260906080623 71 320 0.0 1.0 0.00 0.00 0.00 93 1015.8
20260906080119 71 189 0.0 0.0 0.00 0.00 0.00 93 1015.6
20260906075613 71 233 0.0 1.0 0.00 0.00 0.00 93 1015.7
20260906075108 71 216 0.0 1.0 0.00 0.00 0.00 93 1015.5
20260906074603 71 216 0.0 1.0 0.00 0.00 0.00 93 1015.6
20260906074102 71 60 0.0 2.0 0.00 0.00 0.00 93 1015.6
20260906073557 71 258 0.0 0.0 0.00 0.00 0.00 93 1015.8
20260906073052 71 330 0.0 0.0 0.00 0.00 0.00 93 1015.4
20260906072552 71 330 0.0 0.0 0.00 0.00 0.00 93 1015.6
20260906072049 71 330 0.0 0.0 0.00 0.00 0.00 93 1015.7
20260906071544 71 229 0.0 0.0 0.00 0.00 0.00 93 1015.5
20260906071039 72 251 0.0 0.0 0.00 0.00 0.00 93 1015.5
20260906070536 72 87 0.0 0.0 0.00 0.00 0.00 93 1015.5
20260906070031 72 83 0.0 1.0 0.00 0.00 0.00 93 1015.6
20260906065530 72 69 1.0 1.0 0.00 0.00 0.00 93 1015.8
20260906065026 72 254 0.0 1.0 0.00 0.00 0.00 93 1015.9
20260906064522 72 150 0.0 0.0 0.00 0.00 0.00 93 1015.8
20260906064017 72 150 0.0 0.0 0.00 0.00 0.00 93 1015.8
20260906063512 72 138 0.0 0.0 0.00 0.00 0.00 93 1015.9
20260906063008 72 93 0.0 0.0 0.00 0.00 0.00 93 1015.7
20260906062457 72 93 0.0 1.0 0.00 0.00 0.00 93 1016.0
20260906061951 71 245 0.0 0.0 0.00 0.00 0.00 93 1015.8
20260906061448 71 245 0.0 0.0 0.00 0.00 0.00 93 1015.8
20260906060947 71 245 0.0 0.0 0.00 0.00 0.00 93 1015.7
20260906060444 71 245 0.0 0.0 0.00 0.00 0.00 93 1015.8
20260906055940 71 245 0.0 0.0 0.00 0.00 0.00 93 1015.9
20260906055436 72 256 0.0 0.0 0.00 0.00 0.00 93 1015.9
20260906054931 72 256 0.0 0.0 0.00 0.00 0.00 93 1015.9
20260906054426 72 110 0.0 0.0 0.00 0.00 0.00 93 1015.9
20260906053922 72 110 0.0 0.0 0.00 0.00 0.00 93 1015.8
20260906053418 72 343 0.0 0.0 0.00 0.00 0.00 93 1015.7
20260906052913 72 343 0.0 0.0 0.00 0.00 0.00 93 1015.9
20260906052409 72 343 0.0 0.0 0.00 0.00 0.00 93 1015.9
20260906051906 72 343 0.0 0.0 0.00 0.00 0.00 93 1015.9
20260906051406 72 245 0.0 0.0 0.00 0.00 0.00 93 1016.0
20260906050902 72 245 0.0 0.0 0.00 0.00 0.00 93 1015.8
20260906050356 72 245 0.0 0.0 0.00 0.00 0.00 93 1016.0
20260906045856 72 83 0.0 0.0 0.00 0.00 0.00 93 1016.1
20260906045355 72 110 0.0 1.0 0.00 0.00 0.00 93 1015.9
20260906044852 72 267 0.0 0.0 0.00 0.00 0.00 93 1016.0
20260906044351 72 251 0.0 0.0 0.00 0.00 0.00 93 1015.7
20260906043847 72 251 0.0 0.0 0.00 0.00 0.00 93 1015.6
20260906043343 72 251 0.0 0.0 0.00 0.00 0.00 93 1016.1
20260906042838 72 83 0.0 0.0 0.00 0.00 0.00 93 1016.0
20260906042337 72 138 0.0 0.0 0.00 0.00 0.00 93 1016.1
20260906041833 72 138 0.0 0.0 0.00 0.00 0.00 93 1016.3
20260906041328 72 161 0.0 0.0 0.00 0.00 0.00 93 1016.4
20260906040828 72 314 0.0 0.0 0.00 0.00 0.00 92 1016.3
20260906040323 72 266 0.0 0.0 0.00 0.00 0.00 92 1016.3
20260906035819 72 168 0.0 0.0 0.00 0.62 0.62 92 1016.4
20260906035314 72 94 0.0 0.0 0.00 0.62 0.62 92 1016.3
20260906034809 72 185 0.0 0.0 0.00 0.62 0.62 92 1016.1
20260906034303 72 185 0.0 0.0 0.00 0.62 0.62 92 1016.2
20260906033759 72 185 0.0 0.0 0.00 0.62 0.62 92 1016.3
20260906033258 72 145 0.0 0.0 0.00 0.62 0.62 92 1016.2
20260906032755 72 238 0.0 0.0 0.00 0.62 0.62 92 1016.3
20260906032255 72 238 0.0 0.0 0.00 0.62 0.62 92 1016.3
20260906031750 72 238 0.0 0.0 0.00 0.62 0.62 91 1016.5
20260906031247 72 238 0.0 0.0 0.00 0.62 0.62 91 1016.3
20260906030746 72 251 0.0 0.0 0.00 0.62 0.62 91 1016.2
20260906030241 72 251 0.0 0.0 0.00 0.62 0.62 91 1016.0
20260906025740 73 251 0.0 0.0 0.00 0.62 0.62 91 1016.3
20260906025235 73 251 0.0 0.0 0.00 0.62 0.62 90 1016.2
20260906024734 73 216 0.0 0.0 0.00 0.62 0.62 89 1016.3
20260906024233 73 178 0.0 0.0 0.00 0.62 0.62 89 1016.0
20260906023729 73 325 0.0 0.0 0.00 0.62 0.62 89 1016.2
20260906023225 73 185 0.0 0.0 0.00 0.62 0.62 89 1016.1
20260906022720 73 103 0.0 2.0 0.00 0.62 0.62 89 1016.0
20260906022215 73 248 0.0 0.0 0.00 0.62 0.62 89 1016.2
20260906021711 73 110 0.0 1.0 0.00 0.62 0.62 90 1016.0
20260906021209 73 110 0.0 2.0 0.00 0.62 0.62 90 1015.9
20260906020705 72 58 0.0 0.0 0.00 0.62 0.62 90 1016.1
20260906020159 72 26 0.0 0.0 0.00 0.62 0.62 91 1016.0
20260906015654 72 145 0.0 0.0 0.00 0.62 0.62 90 1015.8
20260906015152 72 145 0.0 0.0 0.00 0.62 0.62 90 1015.7
20260906014652 72 145 0.0 0.0 0.00 0.62 0.62 90 1015.6
20260906014148 72 304 0.0 0.0 0.00 0.62 0.62 90 1015.7
20260906013644 72 304 0.0 0.0 0.00 0.62 0.62 89 1015.7
20260906013139 72 245 0.0 0.0 0.00 0.62 0.62 90 1015.5
20260906012639 73 110 0.0 0.0 0.00 0.62 0.62 89 1015.6
20260906012139 73 110 0.0 1.0 0.00 0.62 0.62 89 1015.3
20260906011635 73 145 0.0 0.0 0.00 0.62 0.62 89 1015.5
20260906011130 73 145 0.0 0.0 0.00 0.62 0.62 89 1015.6
20260906010626 73 142 0.0 1.0 0.00 0.62 0.62 89 1015.4
20260906010122 73 196 0.0 0.0 0.00 0.62 0.62 89 1015.7
20260906005621 73 226 0.0 0.0 0.00 0.62 0.62 89 1015.3
20260906005120 73 298 2.0 2.0 0.00 0.62 0.62 89 1015.4
20260906004620 74 138 0.0 1.0 0.00 0.62 0.62 88 1015.7
20260906004114 74 156 1.0 1.0 0.00 0.62 0.62 88 1015.1
20260906003610 74 354 0.0 2.0 0.00 0.62 0.62 88 1015.2
20260906003106 74 83 0.0 1.0 0.00 0.62 0.62 88 1014.9
20260906002606 74 150 0.0 1.0 0.00 0.62 0.62 87 1014.9
20260906002101 74 251 0.0 0.0 0.00 0.62 0.62 87 1015.1
20260906001556 74 267 0.0 0.0 0.00 0.62 0.62 86 1014.9
20260906001050 74 346 0.0 0.0 0.00 0.62 0.62 86 1015.1
20260906000547 74 0 0.0 0.0 0.00 0.62 0.62 88 1014.6
20260906000041 75 0 0.0 0.0 0.00 0.62 0.62 88 1014.7
20260905235535 75 311 0.0 0.0 0.00 0.62 0.62 88 1014.7
20260905235030 75 318 0.0 0.0 0.00 0.62 0.62 89 1014.9
20260905234526 75 36 0.0 0.0 0.00 0.62 0.62 89 1014.8
20260905234026 75 238 0.0 0.0 0.00 0.62 0.62 88 1014.9
20260905233521 74 354 0.0 0.0 0.00 0.62 0.62 89 1014.8
20260905233021 74 354 0.0 0.0 0.00 0.62 0.62 89 1014.9
20260905232516 74 238 0.0 0.0 0.00 0.62 0.62 90 1014.7
20260905232012 74 194 0.0 0.0 0.00 0.62 0.62 89 1014.7
20260905231507 74 194 0.0 0.0 0.00 0.62 0.62 89 1014.7
20260905231003 74 238 0.0 0.0 0.00 0.62 0.62 87 1014.6
20260905230502 74 336 0.0 0.0 0.00 0.62 0.62 88 1014.8
20260905230000 74 251 0.0 0.0 0.00 0.62 0.62 89 1014.7
20260905225455 75 251 0.0 0.0 0.00 0.62 0.62 88 1014.6
20260905224950 75 325 0.0 0.0 0.00 0.62 0.62 87 1014.5
20260905224446 75 325 0.0 0.0 0.00 0.62 0.62 86 1014.7
20260905223945 75 325 0.0 0.0 0.00 0.62 0.62 86 1014.7
20260905223443 76 238 0.0 0.0 0.02 0.62 0.62 84 1014.4
20260905222938 76 238 0.0 0.0 0.05 0.62 0.62 85 1014.5
20260905222437 77 238 0.0 0.0 0.02 0.62 0.62 83 1014.7
20260905221933 78 263 0.0 0.0 0.02 0.61 0.61 80 1014.5
20260905221429 80 325 0.0 0.0 0.07 0.61 0.61 74 1014.3
20260905220926 80 238 0.0 0.0 0.05 0.61 0.61 67 1014.2
20260905220422 80 216 0.0 0.0 0.00 0.60 0.60 69 1014.3
20260905215920 81 53 0.0 0.0 0.00 0.60 0.60 64 1014.3
20260905215416 81 163 0.0 0.0 0.00 0.60 0.60 67 1014.2
20260905214913 80 230 0.0 1.0 0.00 0.60 0.60 66 1014.3
20260905214408 80 138 0.0 0.0 0.00 0.60 0.60 65 1014.3
20260905213908 81 118 1.0 1.0 0.00 0.60 0.60 68 1014.1
20260905213404 81 65 0.0 0.0 0.00 0.60 0.60 65 1014.2
20260905212859 81 239 0.0 1.0 0.00 0.60 0.60 68 1014.1
20260905212354 82 274 0.0 0.0 0.00 0.60 0.60 66 1014.1
20260905211847 82 68 0.0 1.0 0.00 0.60 0.60 66 1014.0
20260905211343 81 238 0.0 1.0 0.00 0.60 0.60 66 1014.1
20260905210839 80 96 0.0 1.0 0.00 0.60 0.60 69 1014.0
20260905210340 80 201 0.0 0.0 0.00 0.60 0.60 68 1014.0
20260905205839 80 343 0.0 0.0 0.00 0.60 0.60 68 1013.9
20260905205339 80 343 0.0 0.0 0.00 0.60 0.60 69 1014.2
20260905204833 80 216 0.0 1.0 0.00 0.60 0.60 68 1013.9
20260905204329 81 345 2.0 2.0 0.00 0.60 0.60 66 1014.1
20260905203827 81 231 0.0 2.0 0.00 0.60 0.60 66 1014.2
20260905203324 81 233 1.0 2.0 0.00 0.60 0.60 70 1014.2
20260905202819 82 168 0.0 1.0 0.00 0.60 0.60 64 1014.4
20260905202313 83 21 0.0 1.0 0.00 0.60 0.60 64 1014.3
20260905201809 84 263 0.0 1.0 0.00 0.60 0.60 64 1014.1
20260905201304 82 277 0.0 1.0 0.00 0.60 0.60 66 1014.2
20260905200758 82 238 0.0 1.0 0.00 0.60 0.60 68 1014.0
20260905200255 83 135 2.0 2.0 0.00 0.60 0.60 63 1014.5
20260905195752 83 330 0.0 1.0 0.00 0.60 0.60 63 1014.3
20260905195247 81 223 0.0 2.0 0.00 0.60 0.60 69 1014.7
20260905194743 81 177 0.0 2.0 0.00 0.60 0.60 72 1014.7
20260905194242 81 147 2.0 2.0 0.00 0.60 0.60 70 1014.9
20260905193742 81 167 1.0 2.0 0.00 0.60 0.60 69 1014.8
20260905193237 80 238 0.0 1.0 0.00 0.60 0.60 72 1015.1
20260905192727 80 20 1.0 2.0 0.00 0.60 0.60 70 1014.9
20260905192224 78 216 0.0 0.0 0.00 0.60 0.60 82 1014.9
20260905191723 78 222 0.0 1.0 0.00 0.60 0.60 79 1014.8
20260905191221 77 212 0.0 1.0 0.00 0.60 0.60 83 1015.0
20260905190720 76 330 0.0 1.0 0.00 0.60 0.60 85 1015.1
20260905190219 75 185 0.0 1.0 0.00 0.60 0.60 88 1015.1
20260905185718 74 305 2.0 2.0 0.00 0.60 0.60 93 1015.2
20260905185213 73 238 0.0 2.0 0.00 0.60 0.60 94 1015.3
20260905184713 72 97 0.0 0.0 0.00 0.60 0.60 94 1015.4
20260905184211 72 163 0.0 0.0 0.00 0.60 0.60 94 1015.4
20260905183706 72 318 0.0 0.0 0.00 0.60 0.60 94 1015.8
20260905183202 72 251 0.0 0.0 0.00 0.60 0.60 94 1015.5
20260905182700 72 251 0.0 0.0 0.00 0.60 0.60 94 1015.8
20260905182200 72 251 0.0 0.0 0.00 0.60 0.60 94 1015.7
20260905181655 72 251 0.0 0.0 0.00 0.60 0.60 93 1015.7
20260905181154 71 238 0.0 0.0 0.00 0.60 0.60 93 1016.0
20260905180649 72 263 0.0 0.0 0.00 0.60 0.60 94 1016.2
20260905180145 72 343 0.0 0.0 0.00 0.60 0.60 94 1016.1
20260905175643 72 343 0.0 1.0 0.00 0.60 0.60 94 1016.2
20260905175139 72 330 0.0 0.0 0.00 0.60 0.60 94 1016.3
20260905174635 72 290 0.0 0.0 0.00 0.60 0.60 94 1015.6
20260905174130 72 149 2.0 2.0 0.00 0.60 0.60 94 1016.0
20260905173626 72 256 0.0 0.0 0.00 0.60 0.60 94 1016.0
20260905173122 72 290 0.0 0.0 0.00 0.60 0.60 94 1015.6
20260905172620 71 327 0.0 1.0 0.00 0.60 0.60 94 1015.3
20260905172115 71 318 0.0 1.0 0.00 0.60 0.60 94 1015.1
20260905171612 71 245 0.0 1.0 0.00 0.60 0.60 94 1014.7
20260905171107 71 351 0.0 1.0 0.00 0.60 0.60 94 1015.0
20260905170604 71 168 0.0 1.0 0.00 0.60 0.60 94 1015.0
20260905170059 71 245 0.0 1.0 0.00 0.60 0.60 94 1014.9
20260905165559 71 138 0.0 0.0 0.00 0.60 0.60 94 1014.8
20260905165054 71 131 0.0 0.0 0.00 0.60 0.60 94 1014.9
20260905164549 71 263 0.0 0.0 0.00 0.60 0.60 94 1014.6
20260905164044 71 336 0.0 1.0 0.00 0.60 0.60 94 1014.7
20260905163540 71 141 0.0 1.0 0.00 0.60 0.60 94 1014.3
20260905163036 71 168 0.0 1.0 0.00 0.60 0.60 94 1014.8
20260905162533 71 185 0.0 2.0 0.02 0.60 0.60 94 1015.6
20260905162032 71 297 1.0 2.0 0.02 0.60 0.60 94 1015.7
20260905161532 70 69 1.0 2.0 0.02 0.60 0.60 94 1016.0
20260905161029 71 160 0.0 1.0 0.02 0.60 0.60 94 1016.2
20260905160528 70 238 0.0 0.0 0.00 0.59 0.59 94 1016.5
20260905160023 70 238 0.0 1.0 0.00 0.59 0.59 94 1016.7
20260905155523 70 277 0.0 0.0 0.02 0.59 0.59 94 1016.3
20260905155021 70 238 0.0 1.0 0.00 0.59 0.59 94 1016.9
20260905154517 70 233 0.0 1.0 0.00 0.59 0.59 94 1016.7
20260905154012 70 357 0.0 1.0 0.02 0.59 0.59 93 1016.9
20260905153508 70 143 1.0 2.0 0.05 0.59 0.59 93 1016.9
20260905153008 70 233 0.0 0.0 0.00 0.58 0.58 93 1017.2
20260905152508 70 233 0.0 0.0 0.02 0.58 0.58 93 1017.7
20260905152002 70 336 0.0 1.0 0.12 0.58 0.58 92 1017.9
20260905151458 71 145 1.0 2.0 0.47 0.58 0.58 91 1017.6
20260905150953 72 147 2.0 5.0 1.39 0.56 0.56 92 1017.8
20260905150448 74 357 0.0 2.0 2.58 0.45 0.45 93 1018.6
20260905145944 74 175 0.0 1.0 1.37 0.23 0.23 93 1018.4
20260905145440 75 251 0.0 0.0 0.14 0.02 0.02 92 1017.1
20260905144939 75 251 0.0 0.0 0.00 0.00 0.00 92 1016.5
20260905144434 75 276 0.0 0.0 0.00 0.00 0.00 91 1016.1
20260905143932 75 6 0.0 1.0 0.00 0.00 0.00 90 1016.1
20260905143426 75 276 0.0 0.0 0.00 0.00 0.00 91 1016.1
20260905142921 75 226 0.0 0.0 0.00 0.00 0.00 90 1016.1
20260905142420 75 226 0.0 0.0 0.00 0.00 0.00 89 1016.1
20260905141916 76 276 0.0 0.0 0.00 0.00 0.00 89 1016.3